Home > Time Zones > World Clock > Weather > Norway > Oslo > Past weeks

Flag for Norway Weather past 2 weeks in Oslo, Norway

Now
54 °F

Overcast.


Feels Like: 51 °F
Forecast: 51 / 58 °F
Wind: 8 mph from Southwest

Location: Oslo-Blindern

Current Time: Oct 26, 2014 at 10:44:40 AM

Latest Report: Oct 26, 2014 at 10:00 AM


Visibility: 31 mi

Pressure: 29.69 "Hg

Humidity: 70%

Dew point: 44 °F

Location of OsloLocation

Historic Weather in Oslo — Graph

°F

Oslo temperature yesterday

Maximum temperature yesterday: 54 °F (at 12:00 AM)
Minimum temperature yesterday: 48 °F (at 9:00 AM)
Average temperature yesterday: 51 °F

Past Weeks' High & Low Weather Summary

 TemperatureHumidityPressure
High59 °F (Oct 20, 2:00 PM)100% (Oct 14, 8:00 AM)30.13 "Hg (Oct 14, 8:00 AM)
Low35 °F (Oct 14, 5:00 AM)66% (Oct 20, 3:00 PM)29.29 "Hg (Oct 20, 1:00 AM)
Average46 °F90%29.82 "Hg
* Reported Oct 11 10:00 AM — Oct 26 9:00 AM, Oslo, Weather by CustomWeather, © 2014

Note: Actual official high and low records may vary slightly from our data, if they occured in-between our weather recording intervals... More about our weather records

Advertising

Oslo weather history for previous 24 hours

 ConditionsComfort  
Time TempWeatherWind HumidityBarometerVisibility
9:00 AM
Oct 26
53 °FCool.12 mph71%29.67 "HgN/A
8:00 AM53 °FCool.10 mph75%29.68 "HgN/A
7:00 AM52 °FThunderstorms. Overcast.10 mph76%29.68 "Hg47 mi
6:00 AM51 °FCool.8 mph79%29.70 "HgN/A
5:00 AM51 °FCool.8 mph77%29.71 "HgN/A
4:00 AM52 °FSprinkles. Overcast.7 mph78%29.72 "Hg37 mi
3:00 AM51 °FCool.6 mph80%29.74 "HgN/A
2:00 AM51 °FCool.5 mph80%29.75 "HgN/A
2:00 AM51 °FOvercast.6 mph81%29.76 "Hg40 mi
1:00 AM51 °FCool.8 mph80%29.77 "HgN/A
12:00 AM51 °FCool.7 mph81%29.78 "HgN/A
11:00 PM
Oct 25
50 °FOvercast.3 mph85%29.79 "Hg47 mi
10:00 PM50 °FCool.6 mph83%29.80 "HgN/A
9:00 PM50 °FCool.6 mph84%29.80 "HgN/A
8:00 PM49 °FPassing clouds.5 mph85%29.79 "Hg47 mi
7:00 PM49 °FCool.3 mph87%29.79 "HgN/A
6:00 PM50 °FCool.5 mph83%29.79 "HgN/A
5:00 PM52 °FPartly sunny.5 mph76%29.78 "Hg37 mi
4:00 PM53 °FCool.5 mph79%29.79 "HgN/A
3:00 PM53 °FCool.6 mph79%29.80 "HgN/A
2:00 PM52 °FPartly sunny.5 mph78%29.80 "Hg43 mi
1:00 PM54 °FCool.3 mph72%29.80 "HgN/A
12:00 PM53 °FCool.5 mph77%29.80 "HgN/A
11:00 AM49 °FScattered clouds.3 mph97%29.79 "Hg43 mi
10:00 AM48 °FCool.2 mph98%29.78 "HgN/A
Weather by CustomWeather, © 2014

See weather overviewHow to use our weather pages